Terminal Aerodrome Forecast
Issued by NWS Sterling, VA

Current Version | Previous Version | Graphics & Text | Print | Product List | Glossary On
Versions: 1 2 3 4 5 6 7 8 9 10 11 12 13 14 15 16 17 18 19 20 21 22 23 24 25 26 27
051
FTUS41 KLWX 262038 AAA
TAFIAD
TAF AMD
KIAD 262038Z 2621/2724 31007KT P6SM SCT060 BKN150
     FM270000 31007KT P6SM VCTS SCT060CB BKN140
     FM270300 25005KT P6SM SCT060 BKN090
     FM270900 35004KT P6SM BKN050
     FM272200 29004KT P6SM SCT050 BKN080=

USA.gov is the U.S. government's official web portal to all federal, state and local government web resources and services.